TimeEDT,TemperatureF,Dew PointF,Humidity,Sea Level PressureIn,VisibilityMPH,Wind Direction,Wind SpeedMPH,Gust SpeedMPH,PrecipitationIn,Events,Conditions,WindDirDegrees,DateUTC
12:53 AM,70.0,66.9,90,29.94,10.0,Calm,Calm,-,N/A,,Clear,0,2013-07-22 04:53:00
1:53 AM,71.1,66.9,87,29.92,10.0,Calm,Calm,-,N/A,,Scattered Clouds,0,2013-07-22 05:53:00
2:53 AM,70.0,66.9,90,29.91,10.0,Calm,Calm,-,N/A,,Clear,0,2013-07-22 06:53:00
3:53 AM,70.0,66.9,90,29.92,10.0,Calm,Calm,-,N/A,,Partly Cloudy,0,2013-07-22 07:53:00
4:53 AM,70.0,68.0,93,29.92,10.0,Calm,Calm,-,N/A,,Overcast,0,2013-07-22 08:53:00
5:53 AM,71.1,66.9,87,29.92,10.0,Calm,Calm,-,N/A,,Mostly Cloudy,0,2013-07-22 09:53:00
6:38 AM,71.6,66.2,83,29.93,10.0,Calm,Calm,-,N/A,,Overcast,0,2013-07-22 10:38:00
6:53 AM,73.0,66.9,81,29.93,10.0,Calm,Calm,-,N/A,,Overcast,0,2013-07-22 10:53:00
7:53 AM,75.0,68.0,79,29.93,10.0,Calm,Calm,-,N/A,,Mostly Cloudy,0,2013-07-22 11:53:00
8:03 AM,75.2,68.0,78,29.93,10.0,Calm,Calm,-,N/A,,Mostly Cloudy,0,2013-07-22 12:03:00
8:26 AM,78.8,69.8,74,29.93,10.0,NE,5.8,-,N/A,,Partly Cloudy,50,2013-07-22 12:26:00
8:53 AM,79.0,71.1,77,29.93,10.0,Calm,Calm,-,N/A,,Partly Cloudy,0,2013-07-22 12:53:00
9:26 AM,78.8,71.6,78,29.93,9.0,Calm,Calm,-,N/A,,Mostly Cloudy,0,2013-07-22 13:26:00
9:53 AM,81.0,71.1,72,29.93,9.0,ENE,4.6,-,N/A,,Overcast,70,2013-07-22 13:53:00
10:53 AM,81.0,72.0,74,29.92,9.0,Calm,Calm,-,N/A,,Overcast,0,2013-07-22 14:53:00
11:53 AM,81.0,72.0,74,29.92,9.0,SSE,3.5,-,N/A,,Overcast,150,2013-07-22 15:53:00
12:20 PM,82.4,73.4,74,29.91,10.0,East,5.8,-,0.00,,Mostly Cloudy,100,2013-07-22 16:20:00
12:53 PM,86.0,73.9,67,29.89,9.0,Variable,4.6,-,0.00,,Clear,0,2013-07-22 16:53:00
1:53 PM,84.9,71.1,63,29.87,10.0,Variable,4.6,-,N/A,,Mostly Cloudy,0,2013-07-22 17:53:00
2:53 PM,82.9,72.0,69,29.85,9.0,Calm,Calm,-,N/A,,Overcast,0,2013-07-22 18:53:00
3:53 PM,82.0,73.9,76,29.83,7.0,Calm,Calm,-,0.00,Rain,Light Rain,0,2013-07-22 19:53:00
4:16 PM,80.6,75.2,84,29.84,6.0,Variable,3.5,-,0.00,Rain,Light Rain,0,2013-07-22 20:16:00
4:33 PM,80.6,75.2,84,29.83,7.0,Calm,Calm,-,0.00,Rain,Light Rain,0,2013-07-22 20:33:00
4:53 PM,81.0,75.0,82,29.83,7.0,Variable,3.5,-,0.00,Rain,Light Rain,0,2013-07-22 20:53:00
5:31 PM,78.8,73.4,83,29.81,8.0,Variable,4.6,-,0.00,Rain,Light Rain,0,2013-07-22 21:31:00
5:43 PM,78.8,73.4,83,29.82,10.0,Calm,Calm,-,0.00,Rain,Light Rain,0,2013-07-22 21:43:00
5:53 PM,77.0,73.0,88,29.82,4.0,Calm,Calm,-,0.00,Rain,Rain,0,2013-07-22 21:53:00
5:58 PM,75.2,73.4,94,29.82,1.8,SE,4.6,-,0.00,Rain,Heavy Rain,140,2013-07-22 21:58:00
6:28 PM,75.2,71.6,89,29.83,3.0,Calm,Calm,-,N/A,Rain,Light Rain,0,2013-07-22 22:28:00
6:53 PM,75.0,73.0,94,29.82,7.0,Calm,Calm,-,N/A,Rain,Light Rain,0,2013-07-22 22:53:00
7:28 PM,75.2,73.4,94,29.82,2.5,Calm,Calm,-,N/A,Rain,Light Rain,0,2013-07-22 23:28:00
7:37 PM,75.2,73.4,94,29.82,4.0,Variable,3.5,-,N/A,Rain,Light Rain,0,2013-07-22 23:37:00
7:45 PM,75.2,73.4,94,29.82,5.0,Calm,Calm,-,N/A,Rain,Light Rain,0,2013-07-22 23:45:00
7:53 PM,75.9,73.9,94,29.82,5.0,Calm,Calm,-,N/A,,Overcast,0,2013-07-22 23:53:00
8:03 PM,75.2,73.4,94,29.81,4.0,Calm,Calm,-,N/A,,Overcast,0,2013-07-23 00:03:00
8:35 PM,75.2,73.4,94,29.82,3.0,Calm,Calm,-,N/A,Rain,Light Rain,0,2013-07-23 00:35:00
8:50 PM,75.2,75.2,100,29.82,5.0,South,6.9,-,N/A,Rain,Light Rain,180,2013-07-23 00:50:00
8:53 PM,75.9,73.9,94,29.81,6.0,South,8.1,-,N/A,Rain,Light Rain,180,2013-07-23 00:53:00
8:57 PM,75.2,73.4,94,29.82,6.0,South,6.9,-,N/A,Rain,Light Rain,170,2013-07-23 00:57:00
9:04 PM,75.2,73.4,94,29.82,5.0,South,4.6,-,N/A,Rain,Rain,180,2013-07-23 01:04:00
9:53 PM,73.9,72.0,93,29.80,8.0,Calm,Calm,-,N/A,Rain,Light Rain,0,2013-07-23 01:53:00
10:07 PM,75.2,73.4,94,29.81,10.0,Calm,Calm,-,N/A,,Mostly Cloudy,0,2013-07-23 02:07:00
10:19 PM,73.4,73.4,100,29.80,6.0,Calm,Calm,-,N/A,,Overcast,0,2013-07-23 02:19:00
10:53 PM,73.9,73.0,97,29.79,5.0,Calm,Calm,-,N/A,Rain,Light Rain,0,2013-07-23 02:53:00
11:37 PM,73.4,73.4,100,29.79,5.0,Calm,Calm,-,N/A,,Overcast,0,2013-07-23 03:37:00
11:53 PM,73.9,73.0,97,29.78,5.0,Calm,Calm,-,N/A,Rain,Light Rain,0,2013-07-23 03:53:00